Location: Benque
(43.2594°N, 0.9178°E)
Time: 15:14:56
(UTC+00:00)

H-2A R/B - Pass Details

Date: 24 January 2020
Orbit: 734 x 836 km, 98.2° (Epoch: 24 February)

Event Time Altitude Azimuth Distance (km) Brightness Sun altitude
Exits shadow 19:30:15 23° 357° (N) 1,591 3.6 -27.8°
Drops below altitude 10° 19:32:09 10° 352° (N) 2,325 4.6 -28.1°
Sets 19:34:31 0° 350° (N) 3,273 5.4 -28.5°
